[[{"header":{"parameterUnit":"m.s-1","parameterCategory":1,"la1":30.2991,"la2":30.254,"lo1":-89.0895,"lo2":-89.0444,"dy":0.0017,"dx":0.0017,"nx":28,"ny":28,"refTime":"2024-06-28T21:00:00:Z","depth":0,"parameterNumber":2,"parameterNumberName":"U-component_of_WINDS"},"data":[0,0,0,0,0,0,0,0,0,0,0,0,0,0,0,0,0,0,0,0,0,0,0,0,0,0,0,0,0,0,0,0,0,0,0,0,0,0,0,0,0,0,0,0,0,0,0,0,0,0,0,0,0,0,0,0,0,0,0.7891,0.7892,0,0.8011,0.8012,0.8013,0.8066,0.8066,0.8065,0.8065,0.8182,0.8186,0.8189,0,0,0,0,0,0,0,0,0,0,0,0,0,0.77,0.7703,0.789,0.7892,0.7893,0.801,0.8012,0.8014,0.8066,0.8065,0.8065,0.8065,0.8181,0.8185,0.8189,0,0,0,0,0,0,0,0,0,0,0,0,0,0.7797,0.7704,0.789,0.7934,0.7939,0.801,0.8012,0.8014,0.8066,0.8065,0.8065,0.8065,0.818,0.8185,0.819,0.8225,0,0,0.8205,0.8207,0,0,0,0,0,0,0,0,0.7792,0.7804,0.7926,0.7931,0.7937,0.8023,0.7988,0.8085,0.8066,0.8017,0.8065,0.8065,0.8129,0.8138,0.8161,0.823,0.8235,0.8205,0.8208,0.821,0.8212,0,0,0,0,0,0,0,0.7785,0.7799,0.7938,0.7927,0.7934,0.7945,0.7959,0.8006,0.8073,0.8022,0.8026,0.8039,0.8132,0.8156,0.8164,0.8237,0.8205,0.8209,0.8212,0.8214,0.8341,0.8341,0,0,0,0,0,0,0.7772,0.7793,0.7934,0.7941,0.7862,0.7949,0.7964,0.7995,0.8073,0.8084,0.804,0.8041,0.8148,0.8158,0.8169,0.8215,0.821,0.8215,0.8218,0.834,0.8341,0.8341,0,0,0,0,0,0,0.7768,0.7784,0.7929,0.7869,0.7888,0.7952,0.7987,0.7998,0.8022,0.8086,0.8098,0.8053,0.8148,0.8162,0.8211,0.822,0.8217,0.8221,0.834,0.834,0.8341,0.8308,0,0,0,0,0,0,0.7762,0.7782,0.7798,0.7869,0.7891,0.7971,0.7988,0.8,0.8031,0.8035,0.8102,0.8112,0.8149,0.8203,0.8216,0.8227,0.8225,0.8339,0.834,0.8341,0.8309,0.8307,0.8306,0,0,0,0,0,0.7755,0.7782,0.7798,0.7815,0.7912,0.7972,0.7984,0.8028,0.8032,0.8047,0.8088,0.811,0.8217,0.8208,0.8222,0.8235,0.8339,0.834,0.8341,0.8309,0.8308,0.8306,0,0,0,0,0,0,0.7709,0.7792,0.7811,0.7863,0.791,0.798,0.8001,0.8025,0.807,0.8071,0.8121,0.8136,0.8181,0.8212,0.8201,0.8272,0.8279,0.8283,0.825,0.825,0.8249,0.824,0.8229,0,0,0,0,0,0.7705,0.7748,0.7818,0.7857,0.788,0.7936,0.7964,0.7993,0.8043,0.8063,0.8107,0.8153,0.8197,0.8225,0.8269,0.8313,0.8328,0.8329,0.8327,0.8326,0.8329,0.8354,0.8355,0.8344,0.8344,0.8344,0,0,0.7697,0.7748,0.7772,0.7849,0.7889,0.7931,0.7953,0.7996,0.8027,0.8069,0.8119,0.8153,0.8207,0.8254,0.8277,0.8282,0.8335,0.8327,0.8326,0.833,0.8355,0.8356,0.8357,0.8345,0.8345,0.8345,0,0,0.7704,0.7747,0.7784,0.7824,0.7885,0.7923,0.7931,0.7998,0.8023,0.8074,0.8107,0.8143,0.8217,0.8255,0.8284,0.8304,0.8326,0.8317,0.8311,0.8335,0.8336,0.8337,0.8344,0.8346,0.8319,0.8319,0.8319,0,0.7685,0.7752,0.78,0.7842,0.7874,0.7916,0.7953,0.7988,0.8059,0.808,0.8085,0.818,0.8219,0.8275,0.828,0.8302,0.8312,0.831,0.8333,0.8334,0.8336,0.8343,0.8345,0.8318,0.8318,0.8318,0.8318,0,0.7726,0.7772,0.7794,0.7864,0.7899,0.7938,0.799,0.8019,0.8045,0.8081,0.8131,0.818,0.8235,0.825,0.8275,0.8309,0.8311,0.8323,0.8331,0.8334,0.8342,0.8345,0.8316,0.8316,0.8317,0.8317,0,0,0.7708,0.7805,0.7812,0.7844,0.7914,0.7949,0.7989,0.8044,0.8068,0.8115,0.8149,0.8211,0.8224,0.8256,0.8286,0.8306,0.8319,0.8317,0.8319,0.8316,0.8359,0.835,0.8352,0.8334,0.8335,0.8335,0.8355,0,0.7725,0.7802,0.7845,0.7903,0.7945,0.7984,0.8019,0.8064,0.8099,0.8137,0.8174,0.8218,0.8231,0.8251,0.8273,0.8313,0.8329,0.8312,0.8365,0.8366,0.8351,0.8356,0.8346,0.8363,0.8358,0.8359,0.8359,0,0.7755,0.7804,0.7866,0.7932,0.7951,0.7982,0.8035,0.8073,0.8124,0.8147,0.8184,0.8213,0.8255,0.8259,0.8317,0.8305,0.8328,0.8351,0.8352,0.8359,0.8363,0.8363,0.8369,0.8372,0.8364,0.8364,0.8363,0,0.7736,0.7817,0.7865,0.7891,0.7968,0.7989,0.8021,0.8073,0.8103,0.8149,0.8169,0.8218,0.8245,0.8282,0.8323,0.8323,0.8377,0.8384,0.8396,0.8395,0.8406,0.8405,0.8416,0.8421,0.8421,0.842,0.842,0,0.775,0.7787,0.7857,0.7887,0.7928,0.7977,0.8016,0.8051,0.8096,0.8132,0.8168,0.82,0.8252,0.829,0.8322,0.8365,0.8377,0.8396,0.8404,0.8393,0.839,0.8409,0.8409,0.8421,0.8421,0.8421,0.8421,0,0.7736,0.7785,0.784,0.7909,0.7927,0.7954,0.8012,0.8041,0.8077,0.8122,0.8134,0.819,0.8237,0.8282,0.8343,0.8365,0.8407,0.8418,0.8391,0.8395,0.8405,0.8403,0.8428,0.8434,0.8434,0.8434,0.8434,0,0.7742,0.7772,0.7844,0.7872,0.7905,0.7948,0.798,0.8027,0.8058,0.8119,0.814,0.819,0.8232,0.8304,0.8349,0.8396,0.8408,0.8414,0.8415,0.8403,0.8408,0.8406,0.8409,0.8413,0.8412,0.8412,0.8412,0,0.7748,0.7771,0.7817,0.787,0.7907,0.7951,0.7996,0.8016,0.8072,0.8104,0.8154,0.8186,0.825,0.8298,0.8351,0.8382,0.8406,0.8411,0.8416,0.8406,0.8389,0.8398,0.8388,0.841,0.8411,0.8411,0.8411,0.8411,0.7745,0.7773,0.7829,0.7878,0.7917,0.7958,0.7989,0.8029,0.8072,0.8129,0.8154,0.8203,0.8253,0.8326,0.8357,0.8394,0.84,0.8408,0.841,0.8411,0.8409,0.8382,0.8404,0.8404,0.8404,0.8404,0.8404,0,0.7753,0.7791,0.7836,0.7899,0.7936,0.7958,0.8008,0.8038,0.8082,0.8127,0.8168,0.8224,0.8271,0.8319,0.8368,0.8389,0.8401,0.84,0.8399,0.8406,0.8401,0.8391,0.839,0.839,0.839,0.839,0.839,0.839,0.7762,0.7811,0.784,0.7907,0.7944,0.7995,0.8022,0.8059,0.8095,0.8157,0.8197,0.8229,0.8275,0.8328,0.8371,0.8384,0.84,0.8396,0.8412,0.8406,0.8407,0.8407,0.8399,0.8399,0.8399,0.8414,0.8415,0.8415]},{"header":{"parameterUnit":"m.s-1","parameterCategory":1,"la1":30.2991,"la2":30.254,"lo1":-89.0895,"lo2":-89.0444,"dy":0.0017,"dx":0.0017,"nx":28,"ny":28,"refTime":"2024-06-28T21:00:00:Z","depth":0,"parameterNumber":3,"parameterNumberName":"V-component_of_WINDS"},"data":[0,0,0,0,0,0,0,0,0,0,0,0,0,0,0,0,0,0,0,0,0,0,0,0,0,0,0,0,0,0,0,0,0,0,0,0,0,0,0,0,0,0,0,0,0,0,0,0,0,0,0,0,0,0,0,0,0,0,5.1941,5.1943,0,5.2084,5.2086,5.2087,5.2016,5.2013,5.2009,5.2006,5.2148,5.2155,5.2163,0,0,0,0,0,0,0,0,0,0,0,0,0,5.16,5.1607,5.1941,5.1943,5.1945,5.2084,5.2086,5.2088,5.2017,5.2013,5.2008,5.2004,5.2146,5.2155,5.2163,0,0,0,0,0,0,0,0,0,0,0,0,0,5.1746,5.1609,5.1941,5.1926,5.1926,5.2083,5.2086,5.2088,5.2018,5.2012,5.2007,5.2002,5.2143,5.2154,5.2164,5.2343,0,0,5.2198,5.2202,0,0,0,0,0,0,0,0,5.1738,5.1759,5.1927,5.1928,5.1928,5.2027,5.2018,5.2173,5.2019,5.1983,5.2005,5.1999,5.2112,5.2125,5.2164,5.2349,5.2355,5.2199,5.2205,5.221,5.2213,0,0,0,0,0,0,0,5.1728,5.1752,5.1997,5.1929,5.193,5.191,5.1925,5.2047,5.2077,5.1986,5.1981,5.1999,5.2111,5.2154,5.2167,5.2358,5.2198,5.2208,5.2215,5.2219,5.2691,5.2697,0,0,0,0,0,0,5.1719,5.1744,5.1993,5.2002,5.1817,5.1921,5.1937,5.2001,5.2075,5.2082,5.2004,5.1995,5.2138,5.2154,5.2172,5.2383,5.221,5.222,5.2226,5.2685,5.2692,5.2699,0,0,0,0,0,0,5.1712,5.1742,5.1987,5.1872,5.1901,5.1933,5.2004,5.2006,5.2049,5.2089,5.2093,5.2042,5.2134,5.2156,5.23,5.2387,5.2225,5.2235,5.2678,5.2687,5.2696,5.2808,0,0,0,0,0,0,5.1703,5.174,5.181,5.1874,5.1908,5.2116,5.201,5.2013,5.2068,5.2058,5.2126,5.2132,5.2132,5.2284,5.2311,5.2399,5.2243,5.267,5.2682,5.2693,5.2797,5.282,5.284,0,0,0,0,0,5.1691,5.1836,5.1814,5.1844,5.1997,5.2121,5.214,5.2138,5.2076,5.2145,5.2169,5.213,5.2373,5.2299,5.2329,5.2422,5.2665,5.2679,5.2692,5.2787,5.2815,5.2839,0,0,0,0,0,0,5.1782,5.1845,5.1821,5.1992,5.2051,5.2109,5.2197,5.2168,5.2246,5.2234,5.2226,5.2242,5.239,5.242,5.2337,5.2595,5.2509,5.2529,5.2571,5.2598,5.2619,5.2609,5.2252,0,0,0,0,0,5.1822,5.1919,5.1968,5.2114,5.2145,5.2166,5.222,5.2212,5.2274,5.2298,5.2334,5.2394,5.2482,5.2542,5.2626,5.28,5.2812,5.2878,5.2899,5.2916,5.2934,5.3024,5.3053,5.2743,5.2743,5.2743,0,0,5.1906,5.1952,5.2014,5.2133,5.2179,5.2278,5.2188,5.2297,5.2369,5.2314,5.2452,5.248,5.2545,5.2704,5.2775,5.2733,5.3022,5.2934,5.2947,5.2956,5.3041,5.307,5.3097,5.2752,5.2751,5.2749,0,0,5.2109,5.2155,5.228,5.2327,5.2396,5.2408,5.2438,5.2499,5.2515,5.2653,5.2613,5.2697,5.2852,5.29,5.2944,5.3159,5.3124,5.3187,5.3299,5.3387,5.3412,5.3433,5.3508,5.3535,5.3204,5.3204,5.3204,0,5.2204,5.2353,5.2347,5.2459,5.2511,5.2465,5.259,5.2635,5.2729,5.2765,5.2716,5.2906,5.2948,5.3115,5.3167,5.3205,5.3236,5.318,5.3409,5.343,5.345,5.3522,5.355,5.3211,5.321,5.321,5.3209,0,5.2465,5.2569,5.2661,5.2753,5.2815,5.2933,5.2942,5.3005,5.299,5.3006,5.3145,5.3192,5.3283,5.3322,5.331,5.3487,5.3458,5.3409,5.3322,5.3487,5.3554,5.3581,5.3221,5.3219,5.3217,5.3215,0,0,5.2734,5.2818,5.2852,5.2891,5.2962,5.3041,5.3154,5.3244,5.3297,5.3361,5.3454,5.3584,5.3538,5.3589,5.358,5.3658,5.3822,5.3599,5.36,5.3638,5.4016,5.4053,5.4085,5.3798,5.3804,5.3808,5.401,0,5.2941,5.3142,5.3138,5.3323,5.3416,5.3372,5.347,5.3522,5.3539,5.3619,5.3636,5.3727,5.3661,5.369,5.3765,5.3787,5.3898,5.3772,5.3883,5.3887,5.3869,5.412,5.416,5.4349,5.4037,5.4041,5.4044,0,5.3211,5.3284,5.3479,5.3533,5.3572,5.3661,5.374,5.3818,5.3875,5.3881,5.3935,5.3913,5.4024,5.3933,5.4085,5.3999,5.4043,5.406,5.4067,5.4078,5.3977,5.4137,5.441,5.4438,5.4086,5.4082,5.4079,0,5.3386,5.3532,5.3667,5.3702,5.3769,5.3831,5.3862,5.3913,5.3966,5.4034,5.4068,5.4149,5.4193,5.4254,5.4253,5.4187,5.4406,5.4315,5.4412,5.4413,5.4462,5.4459,5.4745,5.4491,5.449,5.449,5.4489,0,5.3618,5.3739,5.3746,5.3829,5.3961,5.3953,5.4083,5.4106,5.4152,5.4236,5.4201,5.4281,5.4274,5.4354,5.4353,5.4477,5.4498,5.4504,5.4503,5.4508,5.4507,5.4538,5.4524,5.4497,5.4496,5.4494,5.4493,0,5.3837,5.3847,5.399,5.404,5.4055,5.415,5.4192,5.4269,5.428,5.4387,5.4411,5.443,5.4521,5.4525,5.463,5.4629,5.478,5.4764,5.4762,5.4759,5.4855,5.4846,5.5172,5.5213,5.4932,5.4935,5.4937,0,5.3985,5.4076,5.4135,5.419,5.4224,5.4312,5.4365,5.4358,5.4414,5.4483,5.4551,5.4639,5.4709,5.4856,5.4877,5.4956,5.4941,5.5049,5.4953,5.4954,5.4941,5.4936,5.4944,5.5069,5.5072,5.5075,5.5077,0,5.4246,5.4245,5.4324,5.4404,5.4469,5.4531,5.4589,5.4634,5.4634,5.4698,5.4791,5.4845,5.4951,5.5037,5.5113,5.5141,5.5109,5.5106,5.5133,5.5139,5.5134,5.5137,5.4813,5.5099,5.5097,5.5095,5.5094,5.5093,5.4433,5.4511,5.4564,5.4652,5.4694,5.4748,5.4822,5.4842,5.4919,5.5006,5.4996,5.5098,5.5147,5.5246,5.528,5.5358,5.532,5.5359,5.5369,5.5379,5.5388,5.5121,5.5371,5.5371,5.537,5.537,5.5369,0,5.4692,5.4722,5.4803,5.4885,5.4952,5.4915,5.4976,5.5035,5.5125,5.5175,5.5243,5.5348,5.543,5.5456,5.5535,5.5592,5.5579,5.5613,5.5609,5.5616,5.5418,5.5387,5.5623,5.5623,5.5623,5.5623,5.5622,5.5622,5.4834,5.4963,5.4968,5.5116,5.5145,5.5246,5.5283,5.5331,5.537,5.5488,5.5557,5.5573,5.5612,5.5693,5.5765,5.577,5.5801,5.5841,5.584,5.5655,5.563,5.5606,5.5576,5.5848,5.5848,5.6031,5.6033,5.6034]}]]